KB3FKJ Weather Reports


time (UTC)temp
C
wind
direction
speed
KPH
gust
KPH
rain 1hr
cm
rain 24hr
cm
rain mn
cm
humidity
%
barometer
mb
20260505100634 16 189 4.8 6.4 0.00 0.00 0.00 61 1007.9
20260505100131 17 145 1.6 6.4 0.00 0.00 0.00 60 1008.1
20260505095627 16 162 3.2 4.8 0.00 0.00 0.00 61 1008.1
20260505095124 16 142 1.6 4.8 0.00 0.00 0.00 62 1008.1
20260505094620 16 260 3.2 6.4 0.00 0.00 0.00 62 1008.0
20260505094117 16 125 1.6 4.8 0.00 0.00 0.00 62 1008.1
20260505093613 16 162 3.2 6.4 0.00 0.00 0.00 62 1007.9
20260505093110 16 136 3.2 4.8 0.00 0.00 0.00 62 1008.0
20260505092607 16 140 3.2 6.4 0.00 0.00 0.00 61 1008.0
20260505092106 16 165 6.4 6.4 0.00 0.00 0.00 61 1007.8
20260505091602 17 141 3.2 6.4 0.00 0.00 0.00 60 1007.9
20260505091101 16 186 4.8 6.4 0.00 0.00 0.00 60 1007.9
20260505090558 17 192 3.2 4.8 0.00 0.00 0.00 59 1007.7
20260505090056 17 248 3.2 4.8 0.00 0.00 0.00 59 1007.9
20260505085553 17 216 3.2 6.4 0.00 0.00 0.00 59 1007.7
20260505085052 16 165 3.2 4.8 0.00 0.00 0.00 60 1007.6
20260505084549 16 130 0.0 3.2 0.00 0.00 0.00 60 1007.5
20260505084047 16 127 3.2 4.8 0.00 0.00 0.00 61 1007.4
20260505083544 16 150 3.2 6.4 0.00 0.00 0.00 61 1007.4
20260505083041 16 191 3.2 4.8 0.00 0.00 0.00 61 1007.3
20260505082536 16 196 3.2 4.8 0.00 0.00 0.00 61 1007.5
20260505082034 16 122 1.6 3.2 0.00 0.00 0.00 61 1007.5
20260505081530 16 156 3.2 4.8 0.00 0.00 0.00 61 1007.5
20260505081027 16 143 0.0 3.2 0.00 0.00 0.00 61 1007.6
20260505080523 16 223 4.8 6.4 0.00 0.00 0.00 61 1007.6
20260505080020 16 122 1.6 3.2 0.00 0.00 0.00 62 1007.6
20260505075516 16 123 0.0 1.6 0.00 0.00 0.00 61 1007.9
20260505075013 17 126 1.6 3.2 0.00 0.00 0.00 61 1007.7
20260505074510 17 165 3.2 4.8 0.00 0.00 0.00 61 1007.6
20260505074007 17 128 3.2 6.4 0.00 0.00 0.00 60 1007.6
20260505073505 17 195 3.2 6.4 0.00 0.00 0.00 60 1007.3
20260505073003 17 124 3.2 9.7 0.00 0.00 0.00 61 1007.4
20260505072458 17 112 1.6 3.2 0.00 0.00 0.00 60 1007.3
20260505071954 17 226 3.2 4.8 0.00 0.00 0.00 60 1007.2
20260505071450 17 152 1.6 4.8 0.00 0.00 0.00 59 1007.2
20260505070948 17 138 4.8 6.4 0.00 0.00 0.00 59 1007.1
20260505070445 17 315 4.8 6.4 0.00 0.00 0.00 59 1007.1
20260505065941 17 151 3.2 11.3 0.00 0.00 0.00 58 1007.3
20260505065437 18 288 6.4 9.7 0.00 0.00 0.00 57 1007.1
20260505064934 17 138 3.2 4.8 0.00 0.00 0.00 58 1007.2
20260505064431 17 253 6.4 11.3 0.00 0.00 0.00 58 1007.0
20260505063929 17 244 4.8 6.4 0.00 0.00 0.00 59 1007.2
20260505063426 17 144 3.2 4.8 0.00 0.00 0.00 59 1007.3
20260505062922 17 238 3.2 4.8 0.00 0.00 0.00 59 1007.3
20260505062420 17 245 3.2 6.4 0.00 0.00 0.00 59 1007.2
20260505061916 17 203 4.8 6.4 0.00 0.00 0.00 58 1007.3
20260505061414 17 206 4.8 6.4 0.00 0.00 0.00 59 1007.4
20260505060912 17 232 1.6 3.2 0.00 0.00 0.00 59 1007.3
20260505060408 17 158 3.2 9.7 0.00 0.00 0.00 60 1007.1
20260505055905 17 176 3.2 4.8 0.00 0.00 0.00 60 1007.3
20260505055401 17 131 1.6 4.8 0.00 0.00 0.00 60 1007.4
20260505054858 17 134 0.0 3.2 0.00 0.00 0.00 59 1007.4
20260505054355 17 159 3.2 4.8 0.00 0.00 0.00 58 1007.5
20260505053853 17 235 4.8 9.7 0.00 0.00 0.00 58 1007.5
20260505053350 17 126 3.2 4.8 0.00 0.00 0.00 58 1007.6
20260505052847 17 171 3.2 4.8 0.00 0.00 0.00 59 1007.6
20260505052343 17 216 1.6 9.7 0.00 0.00 0.00 60 1007.8
20260505051841 17 202 4.8 6.4 0.00 0.00 0.00 59 1007.8
20260505051338 17 176 1.6 6.4 0.00 0.00 0.00 60 1007.7
20260505050836 17 165 3.2 9.7 0.00 0.00 0.00 60 1007.8
20260505050334 17 150 1.6 1.6 0.00 0.00 0.00 60 1007.9
20260505041301 17 126 1.6 4.8 0.00 0.00 0.00 60 1007.6
20260505040758 17 161 3.2 3.2 0.00 0.00 0.00 60 1007.7
20260505040255 17 162 3.2 4.8 0.00 0.00 0.00 59 1007.8
20260505035752 17 149 1.6 9.7 0.00 0.00 0.00 59 1007.6
20260505035248 17 142 1.6 6.4 0.00 0.00 0.00 59 1007.8
20260505034745 17 257 4.8 9.7 0.00 0.00 0.00 58 1007.8
20260505034242 17 201 4.8 6.4 0.00 0.00 0.00 58 1007.7
20260505033738 17 136 3.2 4.8 0.00 0.00 0.00 59 1007.8
20260505033236 17 199 3.2 4.8 0.00 0.00 0.00 58 1007.6
20260505032734 17 174 4.8 9.7 0.00 0.00 0.00 59 1007.5
20260505032229 17 141 1.6 4.8 0.00 0.00 0.00 59 1007.5
20260505031728 17 190 1.6 3.2 0.00 0.00 0.00 59 1007.6
20260505031223 17 132 0.0 3.2 0.00 0.00 0.00 60 1007.4
20260505030721 17 156 1.6 3.2 0.00 0.00 0.00 59 1007.6
20260505030217 17 176 3.2 3.2 0.00 0.00 0.00 61 1007.6
20260505025713 16 120 1.6 3.2 0.00 0.00 0.00 61 1007.6
20260505025211 16 153 1.6 3.2 0.00 0.00 0.00 62 1007.4
20260505024709 16 129 1.6 3.2 0.00 0.00 0.00 63 1007.6
20260505024206 16 144 1.6 1.6 0.00 0.00 0.00 65 1007.6
20260505023703 15 158 1.6 1.6 0.00 0.00 0.00 67 1007.9
20260505023200 15 146 0.0 1.6 0.00 0.00 0.00 71 1007.8
20260505022658 15 126 0.0 0.0 0.00 0.00 0.00 72 1007.5
20260505022154 15 124 0.0 0.0 0.00 0.00 0.00 72 1007.7
20260505021651 15 122 0.0 0.0 0.00 0.00 0.00 71 1007.7
20260505021148 15 124 0.0 0.0 0.00 0.00 0.00 72 1007.6
20260505020643 16 121 0.0 0.0 0.00 0.00 0.00 72 1007.7
20260505020139 16 134 0.0 0.0 0.00 0.00 0.00 69 1007.7
20260505015637 16 140 1.6 1.6 0.00 0.00 0.00 70 1007.9
20260505015133 16 129 0.0 0.0 0.00 0.00 0.00 69 1007.9
20260505014630 16 123 0.0 0.0 0.00 0.00 0.00 69 1007.7
20260505014127 16 127 1.6 1.6 0.00 0.00 0.00 67 1007.6
20260505013625 17 123 0.0 1.6 0.00 0.00 0.00 65 1007.6
20260505013122 17 124 1.6 4.8 0.00 0.00 0.00 64 1007.5
20260505012620 17 236 6.4 11.3 0.00 0.00 0.00 63 1007.7
20260505012117 18 259 8.0 20.9 0.00 0.00 0.00 53 1007.8
20260505011612 18 238 3.2 6.4 0.00 0.00 0.00 50 1007.6
20260505011110 18 168 1.6 6.4 0.00 0.00 0.00 50 1007.3
20260505010605 19 140 1.6 3.2 0.00 0.00 0.00 50 1007.3
20260505005558 18 130 0.0 1.6 0.00 0.00 0.00 50 1007.1
20260505005056 19 305 1.6 3.2 0.00 0.00 0.00 50 1007.2
20260505004552 19 142 3.2 4.8 0.00 0.00 0.00 49 1007.2
20260505004049 19 126 1.6 3.2 0.00 0.00 0.00 49 1007.2
20260505003547 19 155 1.6 4.8 0.00 0.00 0.00 49 1006.9
20260505003044 19 225 3.2 6.4 0.00 0.00 0.00 49 1007.2
20260505002543 20 163 3.2 6.4 0.00 0.00 0.00 48 1007.2
20260505002038 20 237 6.4 6.4 0.00 0.00 0.00 48 1007.0
20260505001534 20 169 3.2 3.2 0.00 0.00 0.00 48 1006.9
20260505001032 20 194 1.6 6.4 0.00 0.00 0.00 47 1006.9
20260505000529 20 201 3.2 6.4 0.00 0.00 0.00 46 1006.8
20260505000027 20 182 1.6 3.2 0.00 0.00 0.00 47 1006.8
20260504235523 20 174 3.2 6.4 0.00 0.00 0.00 47 1006.7
20260504235019 20 138 3.2 6.4 0.00 0.00 0.00 47 1006.7
20260504234517 21 127 0.0 6.4 0.00 0.00 0.00 46 1006.8
20260504234014 21 234 6.4 9.7 0.00 0.00 0.00 46 1006.7
20260504233509 21 209 3.2 4.8 0.00 0.00 0.00 45 1006.4
20260504233006 21 168 1.6 4.8 0.00 0.00 0.00 46 1006.5
20260504232503 21 244 3.2 4.8 0.00 0.00 0.00 45 1006.2
20260504232001 21 253 4.8 6.4 0.00 0.00 0.00 44 1006.4
20260504231457 22 251 9.7 14.5 0.00 0.00 0.00 42 1006.2
20260504230953 22 201 3.2 9.7 0.00 0.00 0.00 43 1006.1
20260504230450 21 157 3.2 9.7 0.00 0.00 0.00 43 1006.3
20260504225949 21 194 3.2 16.1 0.00 0.00 0.00 44 1006.2
20260504225445 22 146 3.2 4.8 0.00 0.00 0.00 44 1006.3
20260504224942 22 280 4.8 14.5 0.00 0.00 0.00 43 1006.4
20260504224439 22 214 3.2 12.9 0.00 0.00 0.00 43 1006.1
20260504223936 22 175 4.8 9.7 0.00 0.00 0.00 41 1006.2
20260504223432 21 168 3.2 4.8 0.00 0.00 0.00 43 1006.1
20260504222927 21 129 1.6 4.8 0.00 0.00 0.00 43 1006.2
20260504222426 21 168 8.0 14.5 0.00 0.00 0.00 43 1006.2
20260504221923 21 233 4.8 9.7 0.00 0.00 0.00 43 1006.1
20260504221420 21 245 8.0 14.5 0.00 0.00 0.00 42 1006.1
20260504220917 22 119 3.2 12.9 0.00 0.00 0.00 41 1006.0
20260504220413 22 288 3.2 14.5 0.00 0.00 0.00 42 1006.0
20260504215911 23 62 8.0 11.3 0.00 0.00 0.00 39 1006.1
20260504215407 23 222 4.8 9.7 0.00 0.00 0.00 40 1006.2
20260504214903 23 195 4.8 12.9 0.00 0.00 0.00 40 1006.2
20260504214400 23 116 6.4 16.1 0.00 0.00 0.00 39 1006.3
20260504213857 23 170 3.2 6.4 0.00 0.00 0.00 38 1006.2
20260504213353 23 273 8.0 9.7 0.00 0.00 0.00 40 1006.2
20260504212850 22 213 6.4 9.7 0.00 0.00 0.00 39 1006.1
20260504212346 23 224 6.4 12.9 0.00 0.00 0.00 38 1006.0
20260504211844 23 219 3.2 9.7 0.00 0.00 0.00 38 1005.9
20260504211340 23 282 6.4 11.3 0.00 0.00 0.00 38 1006.1
20260504210838 23 233 8.0 12.9 0.00 0.00 0.00 37 1006.2
20260504210334 23 263 6.4 12.9 0.00 0.00 0.00 39 1006.2
20260504205832 23 200 8.0 11.3 0.00 0.00 0.00 37 1006.1
20260504205329 24 137 1.6 9.7 0.00 0.00 0.00 40 1006.5
20260504204827 23 153 1.6 3.2 0.00 0.00 0.00 38 1006.3
20260504204326 23 143 6.4 9.7 0.00 0.00 0.00 36 1006.3
20260504203825 23 117 3.2 11.3 0.00 0.00 0.00 37 1006.1
20260504203321 23 211 8.0 11.3 0.00 0.00 0.00 37 1006.3
20260504202817 23 313 12.9 20.9 0.00 0.00 0.00 34 1006.2
20260504202314 23 267 8.0 20.9 0.00 0.00 0.00 35 1006.4
20260504201811 23 233 4.8 14.5 0.00 0.00 0.00 35 1006.3
20260504201308 23 269 6.4 16.1 0.00 0.00 0.00 37 1006.5
20260504200806 23 317 14.5 17.7 0.00 0.00 0.00 34 1006.8
20260504200302 22 245 14.5 20.9 0.00 0.00 0.00 35 1006.8
20260504195758 23 222 11.3 17.7 0.00 0.00 0.00 34 1006.8
20260504195254 23 243 8.0 16.1 0.00 0.00 0.00 36 1006.7
20260504194751 23 165 6.4 16.1 0.00 0.00 0.00 34 1007.1
20260504194247 23 208 6.4 11.3 0.00 0.00 0.00 33 1007.2
20260504193743 22 189 3.2 11.3 0.00 0.00 0.00 35 1007.0
20260504193241 23 266 9.7 17.7 0.00 0.00 0.00 33 1007.4
20260504192739 23 229 11.3 14.5 0.00 0.00 0.00 32 1007.4
20260504192237 23 196 6.4 9.7 0.00 0.00 0.00 32 1007.4
20260504191736 22 177 3.2 11.3 0.00 0.00 0.00 40 1007.3
20260504191232 22 180 6.4 12.9 0.00 0.00 0.00 34 1007.4
20260504190727 22 257 16.1 17.7 0.00 0.00 0.00 34 1007.7
20260504190224 22 244 8.0 12.9 0.00 0.00 0.00 34 1007.7
20260504185721 22 127 6.4 22.5 0.00 0.00 0.00 36 1007.7
20260504185218 22 233 9.7 16.1 0.00 0.00 0.00 35 1007.8
20260504184714 22 190 6.4 16.1 0.00 0.00 0.00 35 1007.8
20260504184210 22 246 6.4 17.7 0.00 0.00 0.00 37 1008.0
20260504183706 22 269 9.7 20.9 0.00 0.00 0.00 38 1008.0
20260504183203 22 186 9.7 20.9 0.00 0.00 0.00 36 1008.0
20260504182701 21 197 4.8 9.7 0.00 0.00 0.00 39 1008.2
20260504182158 21 244 9.7 17.7 0.00 0.00 0.00 37 1008.2
20260504181655 21 223 9.7 20.9 0.00 0.00 0.00 37 1008.3
20260504181153 21 260 9.7 17.7 0.00 0.00 0.00 38 1008.2
20260504180652 22 194 6.4 12.9 0.00 0.00 0.00 42 1008.5
20260504180150 21 278 6.4 11.3 0.00 0.00 0.00 39 1008.3
20260504175647 21 233 8.0 11.3 0.00 0.00 0.00 38 1008.3
20260504175143 21 272 6.4 11.3 0.00 0.00 0.00 40 1008.6
20260504174642 21 240 9.7 12.9 0.00 0.00 0.00 41 1008.6
20260504174138 20 90 4.8 17.7 0.00 0.00 0.00 41 1008.6
20260504173635 20 197 6.4 14.5 0.00 0.00 0.00 41 1008.8
20260504173133 20 244 6.4 14.5 0.00 0.00 0.00 41 1008.8
20260504172629 20 279 9.7 14.5 0.00 0.00 0.00 41 1008.8
20260504172126 20 185 4.8 11.3 0.00 0.00 0.00 43 1009.0
20260504171622 20 271 8.0 12.9 0.00 0.00 0.00 47 1009.1
20260504171119 20 228 8.0 12.9 0.00 0.00 0.00 43 1009.1
20260504170615 20 138 3.2 12.9 0.00 0.00 0.00 43 1009.2
20260504170113 19 128 1.6 6.4 0.00 0.00 0.00 45 1009.4
20260504150958 16 187 4.8 9.7 0.00 0.00 0.00 47 1010.9
20260504150456 16 214 4.8 14.5 0.00 0.00 0.00 49 1011.0
20260504140916 14 156 4.8 12.9 0.00 0.00 0.00 48 1011.2
20260504140412 14 255 9.7 12.9 0.00 0.00 0.00 48 1011.3
20260504130338 12 217 3.2 3.2 0.00 0.00 0.00 50 1011.6
20260504120301 10 129 1.6 1.6 0.00 0.00 0.00 57 1011.9
20260504110225 8 127 0.0 1.6 0.00 0.00 0.00 57 1011.6